When you browse on this site, cookies collect data to enhance your experience and personalize the content and advertising you see.
Visit our Privacy Policy to learn more. By continuing to use the site, you agree to this use of cookies and data.

Meteo pe oră la Tatabanya

Astăzi, 5 August, Miercuri

Timp Temperatura Precipitaţii Vânt Presiune Umiditate
00:00 +15°C° 0.9 mm 5 m/s 738 mmHg 92%
01:00 +15°C° 0 mm 4 m/s 738 mmHg 90%
02:00 +15°C° 0.2 mm 4 m/s 738 mmHg 90%
03:00 +16°C° 0.2 mm 3 m/s 738 mmHg 91%
04:00 +16°C° 0.2 mm 3 m/s 739 mmHg 91%
05:00 +16°C° 0.3 mm 3 m/s 739 mmHg 91%
06:00 +16°C° 0.3 mm 3 m/s 739 mmHg 91%
07:00 +16°C° 0.3 mm 3 m/s 739 mmHg 91%
08:00 +17°C° 0.1 mm 3 m/s 739 mmHg 90%
09:00 +18°C° 0.1 mm 3 m/s 740 mmHg 89%
10:00 +18°C° 0.1 mm 3 m/s 740 mmHg 89%
11:00 +19°C° 0 mm 3 m/s 740 mmHg 86%
12:00 +20°C° 0 mm 3 m/s 740 mmHg 83%
13:00 +21°C° 0 mm 3 m/s 740 mmHg 80%
14:00 +22°C° 0 mm 4 m/s 740 mmHg 76%
15:00 +23°C° 0 mm 4 m/s 740 mmHg 73%
16:00 +25°C° 0 mm 4 m/s 740 mmHg 70%
17:00 +23°C° 0.2 mm 4 m/s 740 mmHg 74%
18:00 +22°C° 0.2 mm 4 m/s 740 mmHg 78%
19:00 +21°C° 0.2 mm 3 m/s 740 mmHg 82%
20:00 +20°C° 0.4 mm 3 m/s 740 mmHg 84%
21:00 +19°C° 0.4 mm 2 m/s 741 mmHg 87%
22:00 +19°C° 0.4 mm 2 m/s 741 mmHg 89%
23:00 +18°C° 0.5 mm 2 m/s 741 mmHg 89%

Mâine, 6 August, Joi

Timp Temperatura Precipitaţii Vânt Presiune Umiditate
00:00 +18°C° 0.5 mm 2 m/s 741 mmHg 90%
01:00 +18°C° 0.5 mm 2 m/s 741 mmHg 91%
02:00 +18°C° 0.3 mm 2 m/s 741 mmHg 92%
03:00 +17°C° 0.3 mm 2 m/s 741 mmHg 93%
04:00 +17°C° 0.3 mm 2 m/s 741 mmHg 94%
05:00 +18°C° 0.2 mm 2 m/s 741 mmHg 91%
06:00 +19°C° 0.2 mm 2 m/s 742 mmHg 88%
07:00 +20°C° 0.2 mm 2 m/s 742 mmHg 85%
08:00 +23°C° 0 mm 2 m/s 742 mmHg 78%
09:00 +24°C° 0 mm 3 m/s 743 mmHg 70%
10:00 +26°C° 0 mm 3 m/s 743 mmHg 62%
11:00 +28°C° 0 mm 3 m/s 743 mmHg 58%
12:00 +29°C° 0 mm 3 m/s 743 mmHg 54%
13:00 +30°C° 0 mm 4 m/s 743 mmHg 49%
14:00 +30°C° 0 mm 4 m/s 743 mmHg 49%
15:00 +30°C° 0 mm 4 m/s 742 mmHg 48%
16:00 +30°C° 0 mm 5 m/s 742 mmHg 47%
17:00 +28°C° 0 mm 4 m/s 742 mmHg 53%
18:00 +26°C° 0 mm 3 m/s 742 mmHg 58%
19:00 +25°C° 0 mm 2 m/s 742 mmHg 64%
20:00 +24°C° 0 mm 2 m/s 743 mmHg 65%
21:00 +23°C° 0 mm 2 m/s 743 mmHg 66%
22:00 +21°C° 0 mm 2 m/s 743 mmHg 67%
23:00 +21°C° 0 mm 2 m/s 743 mmHg 68%

Poimâine, 7 August, Vineri

Timp Temperatura Precipitaţii Vânt Presiune Umiditate
00:00 +21°C° 0 mm 2 m/s 743 mmHg 69%
01:00 +20°C° 0 mm 2 m/s 743 mmHg 70%
02:00 +20°C° 0 mm 2 m/s 743 mmHg 73%
03:00 +20°C° 0 mm 2 m/s 743 mmHg 75%
04:00 +19°C° 0 mm 2 m/s 743 mmHg 77%
05:00 +20°C° 0 mm 2 m/s 744 mmHg 74%
06:00 +21°C° 0 mm 2 m/s 744 mmHg 72%
07:00 +24°C° 0 mm 2 m/s 744 mmHg 69%
08:00 +25°C° 0 mm 2 m/s 744 mmHg 63%
09:00 +27°C° 0 mm 2 m/s 745 mmHg 57%
10:00 +29°C° 0 mm 3 m/s 745 mmHg 50%
11:00 +30°C° 0 mm 3 m/s 745 mmHg 46%
12:00 +31°C° 0 mm 3 m/s 744 mmHg 42%
13:00 +33°C° 0 mm 3 m/s 744 mmHg 39%
14:00 +33°C° 0 mm 3 m/s 744 mmHg 40%
15:00 +33°C° 0 mm 3 m/s 744 mmHg 41%
16:00 +31°C° 0 mm 3 m/s 743 mmHg 42%
17:00 +29°C° 0 mm 2 m/s 743 mmHg 47%
18:00 +28°C° 0 mm 2 m/s 743 mmHg 52%
19:00 +26°C° 0 mm 1 m/s 743 mmHg 58%
20:00 +25°C° 0 mm 1 m/s 743 mmHg 59%
21:00 +25°C° 0 mm 1 m/s 743 mmHg 60%
22:00 +24°C° 0 mm 1 m/s 743 mmHg 61%
23:00 +23°C° 0 mm 1 m/s 743 mmHg 64%

8 August, Sâmbătă

Timp Temperatura Precipitaţii Vânt Presiune Umiditate
00:00 +23°C° 0 mm 1 m/s 743 mmHg 66%
01:00 +22°C° 0 mm 1 m/s 743 mmHg 69%
02:00 +22°C° 0 mm 1 m/s 743 mmHg 70%
03:00 +22°C° 0 mm 1 m/s 743 mmHg 72%
04:00 +21°C° 0 mm 1 m/s 743 mmHg 73%
05:00 +23°C° 0 mm 1 m/s 743 mmHg 70%
06:00 +24°C° 0 mm 1 m/s 743 mmHg 68%
07:00 +25°C° 0 mm 1 m/s 744 mmHg 65%
08:00 +27°C° 0 mm 1 m/s 744 mmHg 60%
09:00 +28°C° 0 mm 2 m/s 744 mmHg 56%
10:00 +30°C° 0 mm 2 m/s 744 mmHg 51%
11:00 +31°C° 0 mm 2 m/s 744 mmHg 48%
12:00 +31°C° 0 mm 2 m/s 743 mmHg 45%
13:00 +32°C° 0 mm 2 m/s 743 mmHg 42%
14:00 +32°C° 0 mm 2 m/s 743 mmHg 44%
15:00 +32°C° 0 mm 1 m/s 742 mmHg 45%
16:00 +32°C° 0 mm 1 m/s 742 mmHg 46%
17:00 +30°C° 0 mm 1 m/s 742 mmHg 50%
18:00 +29°C° 0 mm 1 m/s 742 mmHg 54%
19:00 +27°C° 0 mm 1 m/s 742 mmHg 58%
20:00 +26°C° 0 mm 1 m/s 742 mmHg 60%
21:00 +25°C° 0 mm 1 m/s 742 mmHg 62%
22:00 +24°C° 0 mm 1 m/s 742 mmHg 64%
23:00 +24°C° 0 mm 1 m/s 742 mmHg 67%

9 August, Duminică

Timp Temperatura Precipitaţii Vânt Presiune Umiditate
00:00 +23°C° 0 mm 1 m/s 741 mmHg 69%
01:00 +23°C° 0 mm 1 m/s 741 mmHg 71%
02:00 +22°C° 0 mm 1 m/s 741 mmHg 73%
03:00 +22°C° 0 mm 1 m/s 741 mmHg 75%
04:00 +21°C° 0 mm 1 m/s 741 mmHg 76%
05:00 +22°C° 0 mm 1 m/s 741 mmHg 74%
06:00 +23°C° 0 mm 1 m/s 741 mmHg 71%
07:00 +24°C° 0 mm 1 m/s 741 mmHg 69%
08:00 +26°C° 0 mm 1 m/s 742 mmHg 64%
09:00 +28°C° 0 mm 1 m/s 742 mmHg 59%
10:00 +29°C° 0 mm 1 m/s 742 mmHg 54%
11:00 +30°C° 0 mm 1 m/s 741 mmHg 50%
12:00 +31°C° 0 mm 1 m/s 741 mmHg 46%
13:00 +32°C° 0 mm 1 m/s 741 mmHg 42%
14:00 +32°C° 0 mm 2 m/s 741 mmHg 42%
15:00 +32°C° 0 mm 2 m/s 740 mmHg 42%
16:00 +32°C° 0 mm 2 m/s 740 mmHg 42%
17:00 +30°C° 0 mm 2 m/s 740 mmHg 48%
18:00 +28°C° 0 mm 2 m/s 740 mmHg 54%
19:00 +26°C° 0 mm 1 m/s 740 mmHg 60%
20:00 +25°C° 0.1 mm 1 m/s 740 mmHg 63%
21:00 +25°C° 0.1 mm 1 m/s 740 mmHg 65%
22:00 +24°C° 0.1 mm 1 m/s 740 mmHg 67%
23:00 +23°C° 0.1 mm 1 m/s 740 mmHg 68%

10 August, Luni

Timp Temperatura Precipitaţii Vânt Presiune Umiditate
00:00 +21°C° 0.1 mm 0 m/s 740 mmHg 70%
01:00 +21°C° 0.1 mm 0 m/s 740 mmHg 72%
02:00 +20°C° 0 mm 0 m/s 740 mmHg 73%
03:00 +20°C° 0 mm 0 m/s 740 mmHg 74%
04:00 +20°C° 0 mm 0 m/s 740 mmHg 75%
05:00 +21°C° 0.1 mm 0 m/s 740 mmHg 73%
06:00 +22°C° 0.1 mm 0 m/s 741 mmHg 71%
07:00 +23°C° 0.1 mm 0 m/s 741 mmHg 69%
08:00 +26°C° 0 mm 1 m/s 741 mmHg 63%
09:00 +28°C° 0 mm 1 m/s 741 mmHg 58%
10:00 +30°C° 0 mm 1 m/s 741 mmHg 52%
11:00 +30°C° 0.2 mm 1 m/s 741 mmHg 50%
12:00 +31°C° 0.2 mm 1 m/s 741 mmHg 48%
13:00 +32°C° 0.2 mm 1 m/s 740 mmHg 46%
14:00 +31°C° 0.1 mm 1 m/s 740 mmHg 48%
15:00 +31°C° 0.1 mm 1 m/s 740 mmHg 49%
16:00 +31°C° 0.1 mm 1 m/s 740 mmHg 51%
17:00 +29°C° 0.2 mm 1 m/s 740 mmHg 56%
18:00 +27°C° 0.2 mm 1 m/s 740 mmHg 62%
19:00 +26°C° 0.2 mm 1 m/s 740 mmHg 67%
20:00 +25°C° 0.6 mm 1 m/s 740 mmHg 71%
21:00 +24°C° 0.6 mm 1 m/s 740 mmHg 75%
22:00 +23°C° 0.6 mm 1 m/s 740 mmHg 79%
23:00 +22°C° 0 mm 1 m/s 741 mmHg 80%
Arată mai mult